カタログに戻る

STARLINK-37441

運用中通信SSO
NORAD 68858·PAYLOAD·🇺🇸 United States

打ち上げ Apr 26, 2026 から Vandenberg Space Force Base

Loading…

次のパス (今後24時間)

TLE

最新Source: CelesTrak SupGP

元期: Sep 14, 2026, 14:34 UTC

1 68858C 26094V   26257.60743056 -.00037833  00000+0 -11742-2 0  2578
2 68858  97.2838 270.8624 0001611  97.2111  48.7227 15.33465091    11

AllMySatでSTARLINK-37441をリアルタイム追跡

Download on the App Store